Flag Weather past 2 weeks in Sankt Augustin, North Rhine-Westphalia, Germany

Now
43 °F

Partly cloudy.


Feels Like: 37 °F
Forecast: 40 / 50 °F
Wind: 9 mph from Southeast

Location: Koeln / Bonn

Current Time: Nov 27, 2014 at 7:51:23 PM

Latest Report: Nov 27, 2014 at 7:20 PM


Visibility: N/A

Pressure: 29.77 "Hg

Humidity: 87%

Dew point: 39 °F

Location of Sankt AugustinLocation

Historic Weather in Sankt Augustin — Graph

°F

Sankt Augustin temperature yesterday

Maximum temperature yesterday: 43 °F (at 12:20 AM)
Minimum temperature yesterday: 37 °F (at 7:50 AM)
Average temperature yesterday: 41 °F

Past Weeks' High & Low Weather Summary

 TemperatureHumidityPressure
High55 °F (Nov 13, 1:20 PM)100% (Nov 13, 2:20 AM)30.36 "Hg (Nov 13, 2:20 AM)
Low27 °F (Nov 25, 4:20 AM)50% (Nov 25, 3:20 PM)29.53 "Hg (Nov 16, 2:20 PM)
Average46 °F85%29.95 "Hg
* Reported Nov 12 6:20 PM — Nov 27 6:50 PM, Sankt Augustin, Weather by CustomWeather, © 2014

Note: Actual official high and low records may vary slightly from our data, if they occured in-between our weather recording intervals... More about our weather records

Advertising

Sankt Augustin weather history for previous 24 hours

 ConditionsComfort  
Time TempWeatherWind HumidityBarometerVisibility
6:50 PM
Nov 27
41 °FLight rain. Overcast.9 mph93%29.77 "HgN/A
6:20 PM43 °FLight rain. Overcast.9 mph87%29.77 "HgN/A
5:50 PM43 °FLight rain. Overcast.10 mph87%29.77 "HgN/A
5:20 PM43 °FLight rain. Partly cloudy.10 mph87%29.77 "HgN/A
4:50 PM43 °FLight rain. Mostly cloudy.9 mph87%29.77 "HgN/A
4:20 PM45 °FLight rain. Partly sunny.9 mph76%29.77 "HgN/A
3:50 PM45 °FLight rain. Broken clouds.10 mph81%29.77 "HgN/A
3:20 PM45 °FSunny.9 mph76%29.77 "Hg10 mi
2:50 PM45 °FSunny.9 mph81%29.77 "Hg10 mi
2:20 PM45 °FSunny.9 mph76%29.77 "Hg10 mi
1:50 PM45 °FLight rain. More clouds than sun.9 mph81%29.77 "HgN/A
1:20 PM45 °FLight rain. Clear.9 mph76%29.77 "HgN/A
12:50 PM45 °FSunny.9 mph76%29.80 "Hg10 mi
12:20 PM45 °FSunny.10 mph76%29.80 "Hg10 mi
11:50 AM45 °FSunny.8 mph76%29.80 "Hg10 mi
11:20 AM45 °FSunny.9 mph76%29.80 "Hg10 mi
10:50 AM43 °FSunny.8 mph81%29.80 "Hg10 mi
10:20 AM43 °FPartly sunny.8 mph81%29.83 "HgN/A
9:50 AM43 °FPartly sunny.9 mph76%29.83 "HgN/A
9:20 AM43 °FPartly sunny.9 mph76%29.83 "HgN/A
8:50 AM43 °FBroken clouds.10 mph76%29.83 "HgN/A
8:20 AM43 °FBroken clouds.8 mph76%29.83 "HgN/A
7:50 AM43 °FPartly cloudy.7 mph76%29.83 "HgN/A
7:20 AM43 °FPassing clouds.7 mph76%29.83 "HgN/A
6:50 AM43 °FPassing clouds.6 mph76%29.83 "HgN/A
6:20 AM43 °FPartly cloudy.7 mph76%29.83 "HgN/A
5:50 AM43 °FPartly cloudy.7 mph76%29.83 "HgN/A
5:20 AM43 °FPartly cloudy.8 mph76%29.83 "HgN/A
4:50 AM43 °FPartly cloudy.10 mph76%29.83 "HgN/A
4:20 AM41 °FPartly cloudy.8 mph81%29.86 "HgN/A
3:50 AM41 °FPartly cloudy.8 mph81%29.86 "HgN/A
3:20 AM41 °FPassing clouds.8 mph81%29.86 "HgN/A
2:50 AM41 °FLight rain. Passing clouds.8 mph81%29.86 "HgN/A
2:20 AM41 °FPassing clouds.8 mph87%29.89 "HgN/A
1:50 AM41 °FPassing clouds.9 mph81%29.89 "HgN/A
1:20 AM41 °FPassing clouds.8 mph87%29.89 "HgN/A
12:50 AM41 °FPassing clouds.8 mph87%29.89 "HgN/A
12:20 AM41 °FPassing clouds.8 mph87%29.92 "HgN/A
11:50 PM
Nov 26
41 °FPassing clouds.8 mph87%29.92 "HgN/A
11:20 PM41 °FPassing clouds.8 mph81%29.92 "HgN/A
10:50 PM41 °FPassing clouds.8 mph81%29.92 "HgN/A
10:20 PM41 °FLight rain. Passing clouds.9 mph81%29.92 "HgN/A
9:50 PM41 °FPassing clouds.8 mph87%29.95 "HgN/A
9:20 PM41 °FPassing clouds.8 mph87%29.95 "HgN/A
8:50 PM41 °FLight rain. Passing clouds.9 mph87%29.95 "HgN/A
8:20 PM41 °FLight rain. Passing clouds.12 mph81%29.95 "HgN/A
7:50 PM41 °FPassing clouds.10 mph81%29.95 "HgN/A
7:20 PM41 °FPassing clouds.10 mph81%29.95 "HgN/A
Weather by CustomWeather, © 2014

See weather overviewHow to use our weather pages